Location: Newark
(48.4472°N, 1.4892°E)
Time: 20:19:23
(UTC+00:00)

deb Explorer IX - Pass Details

Date: 20 November 2019
Orbit: 545 x 1105 km, 38.8° (Epoch: 05 December)

Event Time Altitude Azimuth Distance (km) Brightness Sun altitude
Exits shadow 05:27:23 12° 228° (SW) 2,053 ? -16.5°
Maximum altitude 05:28:53 13° 210° (SSW) 1,911 ? -16.3°
Drops below altitude 10° 05:31:12 10° 180° (S) 2,061 ? -15.9°
Sets 05:34:31 0° 154° (SSE) 2,865 ? -15.4°
